Terminal Aerodrome Forecast
Issued by NWS Newport/Morehead City, NC

Home | Current Version | Previous Version | Text Only | Print | Product List | Glossary Off
Versions: 1 2 3 4 5 6 7 8 9 10 11 12

000
FTUS42 KMHX 071100
TAFEWN
TAF
KEWN 071132Z 0712/0812 22006KT P6SM SCT040=

USA.gov is the U.S. government's official web portal to all federal, state and local government web resources and services.